Fort George G Meade, MD

10:03 PM EST on December 10, 2016 (GMT -0500)
Tipton

Weather History for KFME - April, 2014

Change the Weather History Date:

Wednesday, April 2, 2014

  Actual Average (KBWI) Record (KBWI)
Temperature  
Mean Temperature 48 °F -  
Max Temperature 62 °F 61 °F 88 °F (1963)
Min Temperature 35 °F 40 °F 23 °F (1907)
Degree Days  
Heating Degree Days 16    
Moisture  
Dew Point 39 °F    
Average Humidity 74    
Maximum Humidity 100    
Minimum Humidity 48    
Precipitation  
Precipitation 0.00 in - - ()
Sea Level Pressure  
Sea Level Pressure 30.09 in    
Wind  
Wind Speed 1 mph (ENE)    
Max Wind Speed 9 mph    
Max Gust Speed -    
Visibility 10 miles    
Events      
Averages and records for this station are not official NWS values.
T = Trace of Precipitation, MM = Missing Value Source: NWS Daily Summary

Daily Weather History Graph

Daily Weather History Graph

Search for Another Location

Airport or City:

Trip Planner

Search our weather history database for the weather conditions in past years. The results will help you decide how hot, cold, wet, or windy it might be!

Date:

Astronomy

Apr. 02, 2014 Rise Set
Actual Time 6:50 AM EDT 7:31 PM EDT
Civil Twilight 6:23 AM EDT 7:58 PM EDT
Nautical Twilight 5:51 AM EDT 8:30 PM EDT
Astronomical Twilight 5:18 AM EDT 9:03 PM EDT
Moon 8:34 AM EDT (4/2) 10:51 PM EDT (4/2)
Length of Visible Light 13h 35m
Length of Day
12h 41m
Waxing Crescent, 10% of the Moon is Illuminated
Apr 2
Waxing Crescent
Apr 7
First Quarter
Apr 15
Full
Apr 22
Last Quarter
Apr 29
New

Hourly Weather History & Observations

Time (EDT) Temp. Windchill Dew Point Humidity Pressure Visibility Wind Dir Wind Speed Gust Speed Precip Events Conditions
12:12 AM 39.2 °F - 33.8 °F 81% 30.05 in 10.0 mi Calm Calm - N/A   Clear
12:33 AM 37.4 °F - 33.8 °F 87% 30.05 in 10.0 mi Calm Calm - N/A   Clear
12:51 AM 37.4 °F - 33.8 °F 87% 30.05 in 10.0 mi Calm Calm - N/A   Clear
1:12 AM 37.4 °F - 33.8 °F 87% 30.04 in 10.0 mi Calm Calm - N/A   Clear
1:33 AM 37.4 °F 34.9 °F 33.8 °F 87% 30.04 in 10.0 mi East 3.5 mph - N/A   Clear
1:51 AM 37.4 °F 33.8 °F 33.8 °F 87% 30.04 in 10.0 mi ESE 4.6 mph - N/A   Clear
2:12 AM 37.4 °F - 33.8 °F 87% 30.04 in 10.0 mi Calm Calm - N/A   Clear
2:33 AM 35.6 °F - 33.8 °F 93% 30.03 in 10.0 mi Calm Calm - N/A   Clear
2:54 AM 35.6 °F - 33.8 °F 93% 30.03 in 10.0 mi Calm Calm - N/A   Clear
3:12 AM 37.4 °F - 33.8 °F 87% 30.04 in 10.0 mi Calm Calm - N/A   Clear
3:33 AM 37.4 °F 34.9 °F 35.6 °F 93% 30.04 in 10.0 mi NNE 3.5 mph - N/A   Clear
3:54 AM 37.4 °F - 35.6 °F 93% 30.04 in 10.0 mi Calm Calm - N/A   Clear
4:12 AM 37.4 °F - 35.6 °F 93% 30.04 in 10.0 mi Calm Calm - N/A   Clear
4:33 AM 37.4 °F - 35.6 °F 93% 30.04 in 10.0 mi Calm Calm - N/A   Clear
4:54 AM 37.4 °F - 35.6 °F 93% 30.04 in 10.0 mi Calm Calm - N/A   Clear
5:12 AM 37.4 °F - 35.6 °F 93% 30.04 in 10.0 mi Calm Calm - N/A   Clear
5:33 AM 35.6 °F - 33.8 °F 93% 30.04 in 10.0 mi Calm Calm - N/A   Clear
5:54 AM 35.6 °F - 33.8 °F 93% 30.05 in 10.0 mi Calm Calm - N/A   Clear
6:12 AM 37.4 °F - 35.6 °F 93% 30.05 in 10.0 mi Calm Calm - N/A   Clear
6:33 AM 35.6 °F - 35.6 °F 100% 30.05 in 10.0 mi Calm Calm - N/A   Clear
6:54 AM 35.6 °F - 35.6 °F 100% 30.06 in 10.0 mi Calm Calm - N/A   Clear
7:12 AM 37.4 °F - 35.6 °F 93% 30.06 in 10.0 mi Calm Calm - N/A   Clear
8:54 AM 44.6 °F 42.2 °F 41.0 °F 87% 30.11 in 10.0 mi NNE 4.6 mph - N/A   Clear
9:12 AM 44.6 °F 42.2 °F 41.0 °F 87% 30.12 in 10.0 mi North 4.6 mph - N/A   Scattered Clouds
9:33 AM 46.4 °F 41.9 °F 41.0 °F 81% 30.14 in 10.0 mi NNE 9.2 mph - N/A   Mostly Cloudy
9:54 AM 46.4 °F 44.3 °F 39.2 °F 76% 30.14 in 10.0 mi NNE 4.6 mph - N/A   Mostly Cloudy
10:12 AM 46.4 °F 43.5 °F 41.0 °F 81% 30.13 in 10.0 mi NE 5.8 mph - N/A   Mostly Cloudy
10:33 AM 46.4 °F 44.3 °F 39.2 °F 76% 30.14 in 10.0 mi NNE 4.6 mph - N/A   Mostly Cloudy
10:54 AM 48.2 °F - 39.2 °F 71% 30.14 in 10.0 mi NNE 5.8 mph - N/A   Mostly Cloudy
11:15 AM 48.2 °F - 39.2 °F 71% 30.14 in 10.0 mi ENE 3.5 mph - N/A   Overcast
11:33 AM 48.2 °F - 39.2 °F 71% 30.14 in 10.0 mi Calm Calm - N/A   Overcast
11:54 AM 48.2 °F - 39.2 °F 71% 30.14 in 10.0 mi NE 3.5 mph - N/A   Mostly Cloudy
12:15 PM 50.0 °F - 39.2 °F 66% 30.13 in 10.0 mi ENE 4.6 mph - N/A   Mostly Cloudy
12:33 PM 50.0 °F - 39.2 °F 66% 30.14 in 10.0 mi East 3.5 mph - N/A   Mostly Cloudy
12:54 PM 50.0 °F - 39.2 °F 66% 30.15 in 10.0 mi East 3.5 mph - N/A   Scattered Clouds
1:15 PM 51.8 °F - 41.0 °F 67% 30.14 in 10.0 mi ENE 4.6 mph - N/A   Scattered Clouds
1:54 PM 55.4 °F - 41.0 °F 58% 30.14 in 10.0 mi NE 3.5 mph - N/A   Scattered Clouds
2:15 PM 55.4 °F - 41.0 °F 58% 30.12 in 10.0 mi Calm Calm - N/A   Scattered Clouds
2:33 PM 59.0 °F - 41.0 °F 51% 30.12 in 10.0 mi East 4.6 mph - N/A   Mostly Cloudy
2:54 PM 60.8 °F - 41.0 °F 48% 30.11 in 10.0 mi Calm Calm - N/A   Mostly Cloudy
3:15 PM 60.8 °F - 41.0 °F 48% 30.10 in 10.0 mi Calm Calm - N/A   Scattered Clouds
3:33 PM 60.8 °F - 42.8 °F 52% 30.10 in 10.0 mi NNW 3.5 mph - N/A   Clear
3:54 PM 60.8 °F - 42.8 °F 52% 30.09 in 10.0 mi Calm Calm - N/A   Clear
4:15 PM 62.6 °F - 42.8 °F 48% 30.08 in 10.0 mi East 3.5 mph - N/A   Clear
4:33 PM 62.6 °F - 42.8 °F 48% 30.08 in 10.0 mi Calm Calm - N/A   Clear
4:54 PM 62.6 °F - 42.8 °F 48% 30.08 in 10.0 mi SSE 4.6 mph - N/A   Clear
5:15 PM 62.6 °F - 42.8 °F 48% 30.08 in 10.0 mi Calm Calm - N/A   Clear
5:33 PM 62.6 °F - 42.8 °F 48% 30.09 in 10.0 mi Calm Calm - N/A   Clear
5:54 PM 62.6 °F - 42.8 °F 48% 30.09 in 10.0 mi ESE 3.5 mph - N/A   Clear
6:15 PM 60.8 °F - 42.8 °F 52% 30.09 in 10.0 mi ESE 6.9 mph - N/A   Clear
6:33 PM 60.8 °F - 42.8 °F 52% 30.10 in 10.0 mi SE 5.8 mph - N/A   Mostly Cloudy
6:54 PM 59.0 °F - 42.8 °F 55% 30.10 in 10.0 mi SE 4.6 mph - N/A   Scattered Clouds
7:15 PM 59.0 °F - 42.8 °F 55% 30.10 in 10.0 mi Calm Calm - N/A   Scattered Clouds
7:36 PM 55.4 °F - 42.8 °F 63% 30.10 in 10.0 mi East 3.5 mph - N/A   Overcast
7:54 PM 55.4 °F - 42.8 °F 63% 30.10 in 10.0 mi ESE 3.5 mph - N/A   Mostly Cloudy
8:15 PM 53.6 °F - 42.8 °F 67% 30.10 in 10.0 mi Calm Calm - N/A   Mostly Cloudy
8:36 PM 51.8 °F - 42.8 °F 71% 30.11 in 10.0 mi Calm Calm - N/A   Scattered Clouds
8:51 PM 51.8 °F - 42.8 °F 71% 30.11 in 10.0 mi Calm Calm - N/A   Clear
9:15 PM 50.0 °F - 41.0 °F 71% 30.11 in 10.0 mi Calm Calm - N/A   Clear
9:36 PM 48.2 °F - 41.0 °F 76% 30.11 in 10.0 mi Calm Calm - N/A   Clear
9:54 PM 46.4 °F - 41.0 °F 81% 30.11 in 10.0 mi Calm Calm - N/A   Clear
10:15 PM 46.4 °F - 41.0 °F 81% 30.11 in 10.0 mi Calm Calm - N/A   Scattered Clouds
10:36 PM 44.6 °F - 41.0 °F 87% 30.12 in 10.0 mi Calm Calm - N/A   Scattered Clouds
10:54 PM 46.4 °F - 41.0 °F 81% 30.12 in 10.0 mi Calm Calm - N/A   Mostly Cloudy
11:15 PM 46.4 °F - 41.0 °F 81% 30.12 in 10.0 mi Calm Calm - N/A   Overcast
11:36 PM 46.4 °F - 41.0 °F 81% 30.11 in 10.0 mi Calm Calm - N/A   Mostly Cloudy
11:54 PM 46.4 °F - 41.0 °F 81% 30.11 in 10.0 mi Calm Calm - N/A   Mostly Cloudy